Flag for U.S.A. Weather past 2 weeks in Akron, Ohio, U.S.A.

Now
42 °F

Clear.


Feels Like: 37 °F
Forecast: 36 / 50 °F
Wind: 8 mph from Northwest

Location: Akron Fulton International Airport

Current Time: Apr 27, 2015 at 1:16:23 AM

Latest Report: Apr 27, 2015 at 12:54 AM


Visibility: 10 mi

Pressure: 29.88 "Hg

Humidity: 62%

Dew point: 30 °F

Location of AkronLocation

Historic Weather in Akron — Graph

°F

Akron temperature yesterday

Maximum temperature yesterday: 58 °F (at 1:54 PM)
Minimum temperature yesterday: 38 °F (at 6:54 AM)
Average temperature yesterday: 48 °F

Past Weeks' High & Low Weather Summary

 TemperatureHumidityPressure
High80 °F (Apr 13, 3:54 PM)90% (Apr 18, 6:54 AM)30.33 "Hg (Apr 18, 6:54 AM)
Low29 °F (Apr 24, 5:54 AM)16% (Apr 15, 3:54 PM)29.39 "Hg (Apr 20, 11:54 AM)
Average53 °F54%29.96 "Hg
* Reported Apr 11 11:54 PM — Apr 26 11:54 PM, Akron, Weather by CustomWeather, © 2015

Note: Actual official high and low records may vary slightly from our data, if they occured in-between our weather recording intervals... More about our weather records

Advertising

Akron weather history for previous 24 hours

 ConditionsComfort  
Time TempWeatherWind HumidityBarometerVisibility
11:54 PM
Sun, Apr 26
42 °FClear.5 mph62%29.88 "Hg10 mi
10:54 PM44 °FClear.5 mph58%29.88 "Hg10 mi
9:54 PM45 °FClear.8 mph56%29.88 "Hg10 mi
8:54 PM48 °FSunny.12 mph50%29.87 "Hg10 mi
7:54 PM50 °FPassing clouds.17 mph44%29.86 "Hg10 mi
6:54 PM53 °FPassing clouds.15 mph39%29.85 "Hg10 mi
5:54 PM55 °FSunny.17 mph37%29.84 "Hg10 mi
4:54 PM55 °FSunny.14 mph34%29.83 "Hg10 mi
3:54 PM56 °FSunny.20 mph36%29.83 "Hg10 mi
2:54 PM57 °FSunny.20 mph39%29.83 "Hg10 mi
1:54 PM58 °FSunny.8 mph35%29.81 "Hg10 mi
12:54 PM56 °FSunny.12 mph37%29.82 "Hg10 mi
11:54 AM54 °FSunny.12 mph38%29.83 "Hg10 mi
10:54 AM52 °FSunny.10 mph38%29.83 "Hg10 mi
9:54 AM50 °FSunny.8 mph44%29.81 "Hg10 mi
8:54 AM46 °FSunny.13 mph48%29.81 "Hg10 mi
7:54 AM42 °FSunny.7 mph57%29.81 "Hg10 mi
6:54 AM38 °FClear.7 mph63%29.78 "Hg10 mi
5:54 AM39 °FClear.8 mph60%29.75 "Hg10 mi
4:54 AM40 °FClear.8 mph58%29.74 "Hg10 mi
3:54 AM41 °FPassing clouds.6 mph53%29.74 "Hg10 mi
2:54 AM43 °FPassing clouds.7 mph49%29.73 "Hg10 mi
1:54 AM44 °FClear.7 mph47%29.73 "Hg10 mi
Weather by CustomWeather, © 2015

See weather overviewHow to use our weather pages